Simultaneous Nadir Overpasses (SNOs) Predictions

Prediction of SNOs between GOES-15 and METOP-C Satellite Orbit:

Table of predicted SNOs for the next 14.0 days since TLE Epoch: 11/1/2019
Index Date Time (GOES-15) GOES-15 Lat,Lon METOP-C Lat,Lon Distance(km) Time Diff (sec)
1 11/02/2019 06:06:17 0.27,-128.45 0.21,-128.61 18.16 80
2 11/04/2019 18:04:30 -0.26,-128.47 -0.33,-128.18 32.47 80
3 11/06/2019 06:23:29 0.26,-128.50 -0.67,-132.78 487.38 80
4 11/07/2019 06:00:09 0.26,-128.50 0.40,-127.77 82.50 80
5 11/08/2019 18:19:01 -0.26,-128.50 0.61,-132.34 438.36 80
6 11/09/2019 18:01:02 -0.26,-128.50 -0.51,-127.35 131.65 80
7 11/11/2019 06:20:01 0.25,-128.53 -0.49,-131.95 388.50 80
8 11/12/2019 05:56:41 0.25,-128.53 0.58,-126.94 180.76 80
9 11/13/2019 18:15:33 -0.25,-128.51 0.43,-131.51 341.55 80
10 11/14/2019 17:57:33 -0.25,-128.51 -0.69,-126.52 227.60 80




NCC Satellite Simultaneous Nadir Overpasses (SNOs) Prediction Service
